TimeMST,TemperatureF,Dew PointF,Humidity,Sea Level PressureIn,VisibilityMPH,Wind Direction,Wind SpeedMPH,Gust SpeedMPH,PrecipitationIn,Events,Conditions,WindDirDegrees,DateUTC
12:51 AM,82.9,66.9,58,29.72,10.0,NNE,4.6,-,N/A,,Mostly Cloudy,20,2013-09-09 07:51:00
1:51 AM,82.0,69.1,65,29.72,10.0,East,5.8,-,N/A,,Mostly Cloudy,100,2013-09-09 08:51:00
2:51 AM,80.1,70.0,71,29.71,10.0,East,5.8,-,N/A,,Mostly Cloudy,100,2013-09-09 09:51:00
3:51 AM,80.1,69.1,69,29.70,10.0,East,9.2,-,N/A,,Mostly Cloudy,80,2013-09-09 10:51:00
4:51 AM,80.1,70.0,71,29.70,10.0,ESE,8.1,-,N/A,,Overcast,110,2013-09-09 11:51:00
5:51 AM,78.1,69.1,74,29.72,10.0,ESE,12.7,-,N/A,,Overcast,120,2013-09-09 12:51:00
6:51 AM,77.0,72.0,84,29.73,8.0,ESE,6.9,-,0.02,Rain,Light Rain,120,2013-09-09 13:51:00
7:51 AM,77.0,72.0,84,29.73,10.0,SSE,6.9,-,0.06,Rain,Light Rain,150,2013-09-09 14:51:00
8:51 AM,78.1,72.0,81,29.75,10.0,East,4.6,-,0.00,,Overcast,100,2013-09-09 15:51:00
9:51 AM,75.9,70.0,82,29.76,7.0,East,9.2,-,0.03,Rain,Light Rain,80,2013-09-09 16:51:00
10:51 AM,75.0,70.0,84,29.78,4.0,East,9.2,-,0.07,Rain,Rain,100,2013-09-09 17:51:00
11:38 AM,73.9,71.1,91,29.82,4.0,SSE,9.2,-,0.12,Rain,Rain,150,2013-09-09 18:38:00
11:51 AM,73.0,70.0,90,29.78,4.0,SE,9.2,-,0.16,Rain,Rain,130,2013-09-09 18:51:00
12:51 PM,73.0,68.0,84,29.75,5.0,NE,10.4,-,0.15,Rain,Rain,50,2013-09-09 19:51:00
1:51 PM,75.9,71.1,85,29.76,10.0,East,8.1,-,0.01,,Mostly Cloudy,90,2013-09-09 20:51:00
2:51 PM,79.0,69.1,72,29.71,10.0,ENE,13.8,-,0.00,,Scattered Clouds,70,2013-09-09 21:51:00
3:51 PM,82.9,64.9,54,29.70,10.0,ENE,9.2,-,N/A,,Scattered Clouds,60,2013-09-09 22:51:00
4:51 PM,82.9,64.0,53,29.70,10.0,Calm,Calm,-,N/A,,Mostly Cloudy,0,2013-09-09 23:51:00
5:51 PM,82.0,64.0,54,29.71,10.0,West,18.4,23.0,N/A,,Mostly Cloudy,260,2013-09-10 00:51:00
6:51 PM,78.1,64.9,64,29.68,10.0,Calm,Calm,-,N/A,,Mostly Cloudy,0,2013-09-10 01:51:00
7:51 PM,79.0,66.0,64,29.68,10.0,Calm,Calm,-,N/A,,Mostly Cloudy,0,2013-09-10 02:51:00
8:51 PM,80.1,66.9,64,29.70,10.0,North,3.5,-,N/A,,Mostly Cloudy,350,2013-09-10 03:51:00
9:51 PM,75.9,69.1,79,29.71,10.0,WSW,6.9,-,N/A,,Mostly Cloudy,240,2013-09-10 04:51:00
10:51 PM,75.0,70.0,84,29.73,10.0,WSW,6.9,-,N/A,,Mostly Cloudy,240,2013-09-10 05:51:00
11:51 PM,75.0,68.0,79,29.75,10.0,SW,6.9,-,N/A,,Mostly Cloudy,230,2013-09-10 06:51:00